STARLINK-2227 (48575 NORAD) Tracking and Keplerian Element Data

This shows tracking and keplerian element data for the satellite.

Feedback or suggestion? Click here.




ElementValue
Catalog48575
NameSTARLINK-2227
Epoch Orbit1259
Epoch Day215.25002315
Epoch Year2021
RAAN105.4723
Inclination53.0663
Eccentricity0.0008079
Argument of Perigee10.2503
Mean Anonmoly210.4813
Mean Motion15.42173875
Decay Rate6.21E-05
L11 48575U 21041Y 21215.25002315 .00006210 00000-0 15191-3 0 9995
L22 48575 53.0663 105.4723 0008079 10.2503 210.4813 15.42173875 12590

Live tracking and technical data element details for STARLINK-2227 (NORAD 48575). STARLINK-2227 can be tracked NOW for your location showing map with azimuth and elevation plus other details from your city location.

Track the satellite on the map from your city or location and see movement details for azimuth, elevation, latitude, longitude, range, height, and movement on the map or in text.







IsCatalogInMostPopularTable: catalog: 48575, numindb: 19
Update: records affected: 1



GetName: 48575 STARLINK-2227

Hit Count: updated at: Tue, 03 Aug 2021 20:42:05 GMT